| time (UTC) | temp F | wind direction | speed knots | gust knots | rain 1hr in | rain 24hr in | rain mn in | humidity % | barometer mb |
| 20260504140453 | 51 | 177 | 3.5 | 8.7 | 0.00 | 0.00 | 0.00 | 74 | 1019.1 |
| 20260504130417 | 50 | 195 | 2.6 | 5.2 | 0.00 | 0.00 | 0.00 | 72 | 1018.2 |
| 20260504110429 | 35 | 235 | 1.7 | 2.6 | 0.00 | 0.00 | 0.00 | 88 | 1016.7 |
| 20260504100432 | 34 | 195 | 0.0 | 0.0 | 0.00 | 0.00 | 0.00 | 88 | 1017.3 |
| 20260504081423 | 34 | 195 | 0.0 | 0.0 | 0.00 | 0.00 | 0.00 | 87 | 1017.2 |
| 20260504080430 | 34 | 195 | 0.0 | 0.0 | 0.00 | 0.00 | 0.00 | 87 | 1017.1 |
| 20260504050452 | 36 | 195 | 0.0 | 0.0 | 0.00 | 0.00 | 0.00 | 85 | 1017.5 |
| 20260504045417 | 36 | 195 | 0.0 | 0.0 | 0.00 | 0.00 | 0.00 | 84 | 1017.4 |
| 20260504044426 | 36 | 195 | 0.0 | 0.0 | 0.00 | 0.00 | 0.00 | 83 | 1017.5 |
| 20260504043432 | 36 | 195 | 0.0 | 0.0 | 0.00 | 0.00 | 0.00 | 82 | 1017.4 |
| 20260504042420 | 37 | 195 | 0.0 | 0.0 | 0.00 | 0.00 | 0.00 | 82 | 1017.3 |
| 20260504041427 | 37 | 195 | 0.0 | 0.0 | 0.00 | 0.00 | 0.00 | 82 | 1017.3 |
| 20260504040434 | 38 | 195 | 0.0 | 0.0 | 0.00 | 0.00 | 0.00 | 82 | 1017.4 |
| 20260504035421 | 38 | 195 | 0.0 | 0.0 | 0.00 | 0.00 | 0.00 | 81 | 1017.4 |
| 20260504034428 | 38 | 195 | 0.0 | 0.0 | 0.00 | 0.00 | 0.00 | 81 | 1017.4 |
| 20260504033452 | 39 | 195 | 0.0 | 0.0 | 0.00 | 0.00 | 0.00 | 80 | 1017.2 |
| 20260504032416 | 39 | 195 | 0.0 | 0.0 | 0.00 | 0.00 | 0.00 | 80 | 1017.3 |
| 20260504031424 | 39 | 195 | 0.0 | 0.0 | 0.00 | 0.00 | 0.00 | 79 | 1017.2 |
| 20260504030434 | 39 | 195 | 0.0 | 0.0 | 0.00 | 0.00 | 0.00 | 77 | 1017.0 |
| 20260504025422 | 40 | 195 | 0.0 | 0.0 | 0.00 | 0.00 | 0.00 | 77 | 1017.4 |
| 20260504024429 | 40 | 195 | 0.0 | 0.0 | 0.00 | 0.00 | 0.00 | 76 | 1017.3 |
| 20260504023417 | 41 | 195 | 0.0 | 0.0 | 0.00 | 0.00 | 0.00 | 75 | 1017.3 |
| 20260504022423 | 41 | 195 | 0.0 | 0.0 | 0.00 | 0.00 | 0.00 | 74 | 1017.0 |
| 20260504021428 | 42 | 195 | 0.0 | 0.0 | 0.00 | 0.00 | 0.00 | 73 | 1017.0 |
| 20260504020431 | 42 | 195 | 0.0 | 0.0 | 0.00 | 0.00 | 0.00 | 72 | 1016.9 |
| 20260504015417 | 43 | 195 | 0.0 | 0.0 | 0.00 | 0.00 | 0.00 | 70 | 1016.9 |
| 20260504014422 | 44 | 195 | 0.0 | 0.0 | 0.00 | 0.00 | 0.00 | 70 | 1017.0 |
| 20260504013448 | 44 | 195 | 0.0 | 0.0 | 0.00 | 0.00 | 0.00 | 68 | 1016.8 |
| 20260504012433 | 45 | 195 | 0.0 | 0.0 | 0.00 | 0.00 | 0.00 | 67 | 1016.8 |
| 20260504011425 | 46 | 195 | 0.0 | 0.0 | 0.00 | 0.00 | 0.00 | 64 | 1016.7 |
| 20260504010431 | 47 | 195 | 0.0 | 0.0 | 0.00 | 0.00 | 0.00 | 64 | 1016.7 |
| 20260504005429 | 48 | 195 | 0.0 | 0.0 | 0.00 | 0.00 | 0.00 | 60 | 1016.6 |
| 20260504004434 | 50 | 195 | 0.0 | 0.0 | 0.00 | 0.00 | 0.00 | 58 | 1016.3 |
| 20260504003421 | 51 | 195 | 0.0 | 0.0 | 0.00 | 0.00 | 0.00 | 56 | 1016.2 |
| 20260504002426 | 52 | 195 | 0.0 | 0.0 | 0.00 | 0.00 | 0.00 | 54 | 1016.1 |
| 20260504001452 | 54 | 195 | 0.0 | 0.0 | 0.00 | 0.00 | 0.00 | 51 | 1016.2 |
| 20260504000416 | 55 | 195 | 0.0 | 0.9 | 0.00 | 0.00 | 0.00 | 47 | 1016.1 |
| 20260503235420 | 55 | 195 | 0.0 | 1.7 | 0.00 | 0.00 | 0.00 | 47 | 1016.1 |
| 20260503234424 | 56 | 195 | 0.9 | 6.1 | 0.00 | 0.00 | 0.00 | 45 | 1016.1 |
| 20260503233449 | 57 | 174 | 1.7 | 5.2 | 0.00 | 0.00 | 0.00 | 40 | 1016.2 |
| 20260503232416 | 58 | 190 | 2.6 | 10.4 | 0.00 | 0.00 | 0.00 | 38 | 1016.3 |
| 20260503231424 | 59 | 193 | 2.6 | 6.1 | 0.00 | 0.00 | 0.00 | 38 | 1016.3 |
| 20260503230433 | 59 | 202 | 2.6 | 7.8 | 0.00 | 0.00 | 0.00 | 37 | 1016.3 |
| 20260503225423 | 59 | 178 | 3.5 | 7.8 | 0.00 | 0.00 | 0.00 | 36 | 1016.3 |
| 20260503224432 | 59 | 152 | 4.3 | 7.0 | 0.00 | 0.00 | 0.00 | 37 | 1016.5 |
| 20260503223420 | 59 | 201 | 2.6 | 7.8 | 0.00 | 0.00 | 0.00 | 37 | 1016.5 |
| 20260503222446 | 60 | 150 | 4.3 | 10.4 | 0.00 | 0.00 | 0.00 | 35 | 1016.6 |
| 20260503221433 | 60 | 161 | 3.5 | 7.0 | 0.00 | 0.00 | 0.00 | 36 | 1016.6 |
| 20260503220422 | 60 | 178 | 5.2 | 11.3 | 0.00 | 0.00 | 0.00 | 34 | 1016.7 |
| 20260503215428 | 60 | 148 | 4.3 | 7.8 | 0.00 | 0.00 | 0.00 | 36 | 1016.7 |
| 20260503214417 | 60 | 191 | 4.3 | 12.2 | 0.00 | 0.00 | 0.00 | 39 | 1016.7 |
| 20260503213422 | 60 | 192 | 5.2 | 12.2 | 0.00 | 0.00 | 0.00 | 38 | 1016.8 |
| 20260503212429 | 60 | 148 | 2.6 | 9.6 | 0.00 | 0.00 | 0.00 | 38 | 1016.8 |
| 20260503211419 | 60 | 192 | 3.5 | 7.8 | 0.00 | 0.00 | 0.00 | 40 | 1016.9 |
| 20260503210426 | 60 | 225 | 5.2 | 9.6 | 0.00 | 0.00 | 0.00 | 38 | 1016.9 |
| 20260503205453 | 60 | 186 | 3.5 | 8.7 | 0.00 | 0.00 | 0.00 | 39 | 1017.0 |
| 20260503204417 | 60 | 186 | 5.2 | 10.4 | 0.00 | 0.00 | 0.00 | 38 | 1017.0 |
| 20260503203425 | 61 | 125 | 2.6 | 7.8 | 0.00 | 0.00 | 0.00 | 39 | 1017.1 |
| 20260503202429 | 60 | 205 | 5.2 | 8.7 | 0.00 | 0.00 | 0.00 | 37 | 1017.3 |
| 20260503201437 | 60 | 209 | 4.3 | 9.6 | 0.00 | 0.00 | 0.00 | 39 | 1017.4 |
| 20260503200422 | 60 | 194 | 2.6 | 8.7 | 0.00 | 0.00 | 0.00 | 37 | 1017.7 |
| 20260503195427 | 59 | 180 | 4.3 | 8.7 | 0.00 | 0.00 | 0.00 | 36 | 1017.8 |
| 20260503194432 | 59 | 159 | 3.5 | 8.7 | 0.00 | 0.00 | 0.00 | 36 | 1018.1 |
| 20260503193420 | 59 | 212 | 4.3 | 9.6 | 0.00 | 0.00 | 0.00 | 36 | 1018.1 |
| 20260503192445 | 59 | 163 | 4.3 | 9.6 | 0.00 | 0.00 | 0.00 | 39 | 1018.1 |
| 20260503191430 | 58 | 146 | 4.3 | 8.7 | 0.00 | 0.00 | 0.00 | 35 | 1018.3 |
| 20260503190418 | 58 | 171 | 3.5 | 10.4 | 0.00 | 0.00 | 0.00 | 41 | 1018.5 |
| 20260503185425 | 58 | 161 | 4.3 | 10.4 | 0.00 | 0.00 | 0.00 | 40 | 1018.6 |
| 20260503184431 | 58 | 163 | 4.3 | 8.7 | 0.00 | 0.00 | 0.00 | 41 | 1018.6 |
| 20260503183417 | 57 | 205 | 4.3 | 8.7 | 0.00 | 0.00 | 0.00 | 35 | 1018.8 |
| 20260503182422 | 56 | 157 | 5.2 | 8.7 | 0.00 | 0.00 | 0.00 | 37 | 1019.0 |
| 20260503181427 | 56 | 132 | 1.7 | 7.8 | 0.00 | 0.00 | 0.00 | 40 | 1019.1 |
| 20260503180455 | 56 | 187 | 4.3 | 11.3 | 0.00 | 0.00 | 0.00 | 40 | 1019.2 |
| 20260503175417 | 56 | 204 | 3.5 | 8.7 | 0.00 | 0.00 | 0.00 | 42 | 1019.1 |
| 20260503174437 | 55 | 176 | 2.6 | 6.1 | 0.00 | 0.00 | 0.00 | 44 | 1019.2 |
| 20260503173416 | 55 | 192 | 5.2 | 9.6 | 0.00 | 0.00 | 0.00 | 41 | 1019.4 |
| 20260503172416 | 55 | 145 | 2.6 | 9.6 | 0.00 | 0.00 | 0.00 | 43 | 1019.6 |
| 20260503171416 | 55 | 196 | 2.6 | 6.1 | 0.00 | 0.00 | 0.00 | 46 | 1019.6 |
| 20260503170420 | 54 | 155 | 1.7 | 7.0 | 0.00 | 0.00 | 0.00 | 44 | 1019.8 |
| 20260503150422 | 47 | 211 | 3.5 | 7.0 | 0.00 | 0.00 | 0.00 | 49 | 1020.6 |